Wind_Speed
28 27 27 27 29 31 30 30 32 36 37 35 34 34 32 31 35 39 40 40 39 37 35 32 32 31 31 29 28 27 25 25 25 25 27 28 31 29 23 21 20 18 18 19 20 20 19 17 15 15 16 14 11 13 12 9 8 5 2 2 1 2 2 3 5 4 2 2 4 3 11 8 4 9 9 4 8 9 9 14 11 13 17 11 6 4 17 26
28 26 25 26 29 30 28 26 29 33 34 34 32 33 34 32 34 37 38 40 40 38 36 34 33 33 33 30 29 28 26 27 26 29 30 27 30 29 22 22 21 18 18 18 19 20 19 18 16 14 15 13 9 10 9 6 7 5 3 2 2 3 3 2 3 4 2 3 7 6 7 9 5 9 11 5 6 9 7 12 13 14 17 15 9 7 19 26
28 27 25 25 27 30 29 26 25 28 32 33 31 32 35 33 34 36 36 39 40 39 38 36 34 34 34 32 30 27 26 26 27 33 33 29 30 30 25 24 22 19 18 19 19 17 18 18 17 14 14 11 7 9 9 5 5 4 3 1 3 4 3 2 3 3 2 5 8 8 4 8 8 9 11 7 5 8 9 13 15 17 19 19 13 10 19 26
28 28 26 24 26 30 32 32 29 26 29 33 32 31 34 32 33 36 36 38 40 40 39 37 36 35 34 33 29 27 26 20 25 35 32 31 33 32 28 25 22 18 16 18 19 17 16 16 16 15 12 8 6 7 6 5 5 3 4 3 3 4 1 3 7 7 5 5 6 6 4 6 8 9 11 9 4 5 14 21 21 21 21 20 19 13 19 26
28 27 26 25 26 29 31 35 36 31 28 31 30 30 34 32 31 33 36 38 40 41 40 38 37 36 34 33 29 28 25 9 16 31 30 31 36 34 30 27 22 18 16 15 18 19 17 16 16 15 9 5 6 6 4 6 9 5 4 4 4 5 1 3 8 8 7 7 5 4 3 5 6 9 14 13 8 7 16 21 21 22 20 18 20 18 19 25
28 27 26 25 28 29 28 32 36 34 31 31 29 29 32 33 32 33 36 39 41 40 37 37 38 37 34 32 30 31 27 7 3 21 30 31 36 39 34 28 24 21 18 13 16 20 19 18 16 13 9 4 4 4 5 9 10 5 4 3 5 3 1 5 9 10 10 7 5 5 5 6 5 8 14 19 20 16 13 13 14 18 19 18 19 20 20 23
27 27 26 25 28 29 28 29 32 29 28 32 30 27 29 33 34 33 37 42 43 40 38 39 39 37 36 32 31 32 31 14 2 11 29 31 32 41 39 31 27 24 21 16 18 22 21 21 17 14 10 4 3 5 8 9 8 6 2 3 3 1 3 6 11 13 11 8 8 8 7 8 7 7 9 20 28 24 15 10 8 11 17 19 18 21 22 21
28 27 25 25 27 29 28 30 33 30 26 29 30 28 28 31 34 32 38 47 46 42 41 41 40 39 38 36 34 29 29 22 5 6 26 33 31 39 41 35 31 27 24 20 20 23 21 20 17 14 7 3 7 8 9 7 2 5 3 2 3 4 5 7 11 12 11 10 9 8 10 11 12 9 9 21 28 24 22 16 9 8 14 19 20 21 22 22
27 26 24 24 26 28 28 28 32 35 30 27 27 28 27 30 35 31 35 47 46 43 44 42 41 41 38 39 36 23 26 28 13 5 21 33 32 36 41 38 34 30 26 22 20 21 21 20 18 15 6 5 10 9 11 7 1 6 6 3 2 3 6 9 10 10 10 10 8 6 10 12 11 8 12 24 25 22 24 21 16 11 12 17 21 21 22 23
26 25 23 23 25 27 28 27 28 33 35 30 25 27 28 28 33 31 32 40 43 41 44 43 41 42 39 39 31 16 25 31 18 9 19 32 32 33 36 35 32 29 28 25 22 20 20 19 19 19 10 6 9 7 9 7 3 5 4 3 3 4 6 8 11 12 10 10 8 6 7 8 6 3 8 17 14 16 22 22 21 17 13 16 20 22 22 23
25 24 23 22 25 27 28 27 25 29 35 34 27 27 29 28 28 30 29 34 43 43 43 45 43 43 41 41 30 14 22 31 21 13 20 31 32 30 31 28 27 27 29 30 24 20 19 17 18 18 8 6 8 6 6 6 4 4 2 2 5 7 8 10 11 12 8 6 8 7 5 5 2 4 12 16 9 11 18 21 23 21 17 16 19 22 23 23
23 23 22 21 23 27 28 27 26 27 33 36 32 28 29 28 25 28 27 27 43 48 44 46 44 44 41 36 32 22 23 30 24 17 24 32 32 30 29 27 27 26 27 32 27 20 17 15 18 16 9 10 9 4 5 7 6 4 3 2 5 6 6 9 10 9 5 4 5 2 4 5 3 9 20 18 11 11 15 19 22 22 21 18 19 22 24 24
23 22 21 20 20 23 26 28 29 26 29 35 32 27 28 29 24 25 25 24 42 52 47 47 45 46 40 28 28 26 25 31 25 22 30 34 33 31 29 28 27 23 24 31 29 20 15 15 18 17 14 14 10 6 7 8 7 4 3 2 2 4 4 5 4 4 4 4 3 4 4 6 5 17 23 16 13 14 15 19 21 22 22 20 20 22 24 26
22 21 20 20 19 20 23 28 31 29 30 33 32 27 25 27 23 21 24 24 41 52 47 48 46 45 38 22 22 26 27 32 27 26 34 36 35 33 29 28 26 23 23 26 25 19 15 16 19 18 15 13 12 10 7 5 4 3 2 1 0 0 3 3 2 3 2 3 4 5 5 7 7 17 20 15 15 15 18 20 20 22 23 22 22 23 25 27
22 20 20 20 19 19 20 24 28 29 31 34 35 30 26 26 22 19 19 20 37 51 47 47 45 40 30 16 21 28 28 33 29 28 35 37 37 35 30 29 26 24 23 23 23 19 18 18 18 15 13 13 15 11 4 3 2 2 2 1 1 2 4 6 2 3 2 3 5 7 4 7 8 15 16 15 17 17 20 21 20 22 23 23 24 24 25 27
21 19 19 19 19 19 19 21 22 24 26 30 36 36 32 29 24 20 15 15 35 50 47 46 45 35 19 11 24 31 30 35 32 30 34 36 38 37 33 30 27 25 23 22 22 20 20 17 14 15 14 11 10 6 4 2 1 2 1 2 1 3 2 4 2 3 3 1 3 6 4 4 5 9 8 9 17 18 19 21 22 23 23 25 25 25 26 27
20 19 19 19 20 19 19 21 23 23 21 23 31 38 36 31 28 25 16 15 34 50 46 44 49 36 12 10 27 34 35 37 33 32 34 34 35 37 36 32 28 26 24 23 22 22 20 15 11 9 8 5 3 5 4 4 3 2 1 2 3 3 3 2 1 0 3 3 2 3 4 6 8 13 12 6 10 15 20 23 23 23 24 25 26 27 28 29
19 18 18 18 20 19 18 20 23 24 21 19 23 32 35 31 30 30 21 16 31 49 43 38 44 25 7 18 36 41 41 39 35 34 35 32 30 34 36 34 31 28 26 22 19 19 16 10 8 4 3 4 4 6 5 4 5 4 4 4 3 2 1 2 1 2 4 2 3 3 4 9 11 18 23 17 11 13 20 23 22 21 23 24 26 29 29 31
17 17 16 16 18 19 18 18 21 23 23 20 17 20 25 27 29 30 26 19 21 27 19 31 43 14 3 23 36 40 41 40 37 33 35 33 30 31 31 31 33 32 26 15 10 15 13 7 5 4 4 6 6 6 6 5 8 9 8 6 4 3 3 2 1 0 3 2 3 4 5 10 11 14 22 22 16 15 17 19 21 22 23 24 26 30 31 33
16 15 14 14 15 17 18 18 19 21 23 22 18 16 14 14 13 16 20 22 23 17 4 30 54 17 3 19 31 38 39 38 38 34 34 35 34 32 29 29 28 23 17 11 7 13 14 6 5 7 7 8 9 9 7 5 7 7 5 4 4 4 3 1 1 1 3 2 3 4 5 9 12 12 19 20 14 15 17 17 22 24 25 27 28 30 32 33
15 14 13 11 13 15 17 17 17 19 23 22 20 18 13 15 10 6 13 18 26 30 18 24 50 18 5 21 34 43 40 32 36 37 33 34 37 30 26 27 19 9 10 13 11 10 11 8 8 9 8 11 11 10 8 5 5 5 5 4 4 4 4 3 2 3 2 2 3 4 5 9 11 13 19 18 9 14 21 21 24 26 26 28 29 31 33 33
14 14 12 10 11 13 15 16 16 18 20 20 23 22 18 22 22 13 10 6 15 28 27 26 44 22 13 27 37 46 40 24 26 36 35 36 37 26 22 22 12 6 10 13 10 6 6 8 8 10 11 12 10 9 10 8 7 5 4 4 3 3 3 3 2 4 1 2 3 4 5 9 11 13 18 18 14 20 27 25 26 28 26 26 27 30 33 34
13 12 10 9 11 12 14 15 16 18 18 18 22 23 19 23 29 22 10 1 5 16 22 34 44 27 24 32 40 47 38 23 24 35 40 38 33 26 22 17 10 9 11 12 10 7 5 5 9 14 14 13 9 9 11 8 7 4 5 5 3 4 3 2 2 4 2 1 3 3 5 8 11 12 15 18 22 26 30 28 27 27 25 26 26 26 29 32
12 11 9 9 10 11 13 14 16 19 20 17 17 19 17 20 29 26 9 2 4 11 17 34 47 37 32 34 43 47 35 28 31 37 42 37 29 22 19 15 11 9 8 13 13 8 3 5 16 16 11 13 10 10 11 7 5 4 5 5 3 5 4 1 0 2 3 3 2 2 5 9 9 11 13 14 16 21 26 25 25 28 28 29 27 26 27 29
11 10 8 8 10 11 13 15 16 20 21 17 16 18 17 18 23 23 8 5 3 7 14 25 39 36 36 36 40 42 30 24 30 40 43 38 31 21 15 15 11 8 11 13 12 7 2 7 18 15 9 13 11 9 10 8 5 3 3 5 6 8 5 3 2 3 4 3 2 3 3 7 4 9 12 8 6 11 17 18 23 30 31 30 30 30 31 30
10 10 8 8 10 12 14 14 15 19 20 18 18 18 17 16 17 20 10 4 4 4 6 18 28 28 35 34 38 38 22 13 24 41 42 35 34 24 14 9 3 7 15 11 6 3 2 5 12 13 12 12 11 9 10 9 6 3 4 7 9 9 7 4 4 4 1 3 3 1 3 5 5 8 11 6 5 10 11 12 19 28 28 29 32 34 34 34
9 9 8 8 10 12 13 11 12 17 16 15 19 17 13 13 12 16 12 2 5 4 3 11 16 26 33 32 41 30 11 16 25 36 40 32 31 26 15 7 2 7 12 8 4 2 6 9 7 12 13 10 10 8 8 11 6 2 6 11 10 9 8 5 6 4 2 2 4 3 3 3 7 9 8 5 8 11 11 10 13 22 26 28 32 34 34 35
9 9 8 8 9 11 11 8 8 13 13 12 17 18 14 13 14 16 9 3 3 6 4 6 8 25 34 37 42 22 16 32 23 22 38 34 27 21 13 10 10 10 8 8 7 1 6 11 10 12 12 8 8 6 10 12 5 1 5 10 8 7 6 5 6 2 0 2 4 4 5 2 7 6 1 2 8 13 14 11 10 18 27 30 32 33 33 34
9 9 8 7 8 10 12 10 8 10 12 12 12 16 17 16 16 12 3 4 3 4 3 7 8 20 29 31 30 20 25 29 15 17 33 29 21 13 8 12 16 11 3 2 5 1 1 9 13 13 9 7 4 6 12 10 3 4 9 10 8 7 6 5 4 2 2 2 5 4 6 4 7 5 2 3 8 13 13 9 8 16 26 30 33 34 34 34
10 9 8 8 9 11 13 15 13 9 10 14 13 16 21 19 11 5 5 3 3 2 5 8 7 15 23 18 11 15 19 13 18 26 21 15 15 10 12 16 15 10 5 7 5 1 2 5 9 6 5 7 7 8 10 9 11 13 12 11 9 5 4 3 2 3 1 4 3 5 9 5 5 5 6 6 6 7 7 6 7 14 23 27 29 32 34 35
10 10 10 9 10 12 12 16 17 11 11 13 16 19 22 13 4 5 6 2 3 3 5 4 5 11 20 15 7 13 14 9 20 26 13 9 11 10 16 14 7 6 4 4 3 2 3 5 3 2 7 12 10 6 5 12 17 12 6 7 7 3 3 3 2 2 2 5 1 3 9 7 8 6 5 7 5 4 6 7 8 12 22 29 29 29 31 33
12 12 11 11 11 12 11 10 13 15 14 14 18 21 16 5 4 4 2 3 3 5 5 4 5 9 15 14 8 13 14 11 17 20 14 11 9 9 11 9 7 6 5 7 5 1 2 1 1 2 8 12 11 6 4 7 9 6 6 8 5 2 1 0 1 0 4 4 1 4 7 6 10 7 7 12 8 6 9 10 13 15 22 30 32 30 30 31
12 13 12 14 12 11 11 9 9 15 15 15 18 18 8 3 6 6 3 2 1 2 5 7 9 12 14 11 7 10 13 12 17 17 14 12 10 9 3 4 9 4 4 10 7 4 2 3 1 3 3 9 12 9 6 5 7 7 9 9 6 4 3 4 3 1 4 4 2 3 4 4 7 4 11 16 14 18 21 21 24 24 26 30 31 31 30 30
13 14 14 15 15 13 11 10 10 12 13 15 14 10 6 6 4 5 7 4 1 1 5 10 13 14 13 9 10 12 9 10 17 16 13 11 10 9 5 7 10 3 6 8 4 7 7 1 5 7 4 8 10 8 7 7 6 6 5 5 5 5 4 5 4 3 3 2 2 1 2 4 3 2 7 10 14 22 26 29 31 31 32 32 32 32 31 31
14 15 16 17 18 19 15 11 12 13 13 14 9 3 7 7 3 4 6 3 1 2 6 10 14 12 7 5 11 11 2 5 17 15 12 13 11 12 11 12 12 6 10 9 2 5 7 2 4 5 6 11 10 5 9 11 5 1 1 2 3 4 3 2 2 3 3 1 1 3 3 4 4 6 9 8 10 13 19 25 27 31 35 32 32 34 33 32
15 17 19 19 20 22 19 15 14 15 16 14 7 5 6 4 1 2 4 5 5 7 9 9 10 9 6 3 8 7 4 3 16 13 10 13 11 13 11 9 11 10 11 10 3 4 6 1 1 3 6 12 12 10 12 12 7 2 3 4 3 2 5 4 1 1 3 2 3 3 6 5 3 7 10 10 10 8 10 15 19 28 34 30 30 34 34 33
17 19 21 22 23 21 20 19 16 18 19 12 6 7 4 2 3 2 1 4 9 12 12 8 5 5 7 5 5 6 6 7 11 9 9 10 9 13 13 9 13 14 11 7 2 3 6 3 2 2 5 9 10 13 11 8 8 6 5 6 4 2 3 3 1 1 1 4 3 3 8 5 1 5 5 5 11 11 9 10 13 20 25 26 31 34 34 33
18 20 23 25 26 22 21 20 18 21 19 9 8 11 4 2 5 5 2 3 8 13 11 8 4 2 7 9 5 8 13 12 9 7 10 9 6 13 16 10 11 14 11 6 3 3 6 5 2 1 3 3 3 9 7 3 4 5 5 8 6 2 2 3 3 2 3 4 3 3 5 4 5 7 2 1 7 9 10 10 10 12 18 25 32 35 34 31
19 19 21 25 27 24 23 22 23 24 15 5 8 10 5 4 6 7 8 6 7 10 10 8 4 2 7 10 9 12 15 14 13 10 10 10 6 11 18 10 8 14 12 7 5 3 4 5 1 2 2 3 2 5 7 5 2 3 4 7 3 1 3 3 3 2 2 4 4 3 3 3 7 7 4 6 8 8 11 10 8 12 19 21 24 29 32 31
20 14 14 19 21 20 23 25 25 19 8 6 9 7 5 7 8 11 15 12 8 8 8 8 6 4 6 8 10 12 11 13 16 11 9 10 4 6 15 12 10 14 11 6 5 4 3 4 4 1 1 4 3 4 8 10 7 4 6 7 4 1 2 1 2 2 3 4 3 2 3 6 6 4 8 11 10 9 8 7 7 11 15 16 15 19 23 26
21 10 8 15 16 20 29 27 18 10 5 7 10 8 6 5 8 13 17 18 14 9 5 8 11 9 7 8 10 10 8 10 14 9 5 10 7 3 12 15 15 15 10 5 5 5 2 3 6 5 3 4 4 4 6 9 9 8 7 8 9 7 4 3 5 2 2 3 3 3 5 7 5 4 7 9 7 5 3 3 7 12 16 16 15 15 17 18
18 9 12 20 20 27 33 20 9 8 8 9 11 12 9 3 6 13 16 19 17 7 6 5 10 11 9 10 10 11 9 9 14 10 4 10 9 3 12 23 25 19 11 5 5 6 4 5 6 4 4 5 4 3 5 7 7 5 3 5 7 6 5 5 5 3 2 2 2 3 3 7 4 6 7 7 6 7 8 7 11 18 21 20 19 18 18 17
19 18 19 22 27 36 30 10 6 9 8 11 16 17 15 8 6 10 13 15 13 5 3 4 5 8 10 10 10 12 10 8 11 7 2 5 5 6 19 32 29 18 9 6 7 7 6 5 5 5 2 3 4 3 0 2 4 5 5 3 5 5 5 3 2 3 3 3 4 2 3 7 4 3 5 5 5 7 9 8 12 19 21 20 19 18 18 18
27 27 22 22 35 42 25 6 7 10 10 14 17 17 16 12 10 11 12 13 11 6 4 5 6 7 8 11 13 15 12 8 6 3 2 2 3 13 29 37 31 18 8 8 10 7 4 3 5 7 4 1 3 1 2 2 4 6 4 5 5 5 3 2 1 1 0 5 7 4 7 9 4 2 1 1 2 4 7 8 9 14 16 17 17 17 16 16
21 18 20 32 48 47 27 17 16 12 14 18 15 16 16 9 10 17 15 13 14 11 5 6 8 6 7 12 13 13 10 5 5 5 3 3 2 10 28 38 33 19 10 14 16 11 6 5 6 8 8 8 6 6 7 6 4 3 5 10 11 10 10 7 3 2 5 8 9 8 11 8 2 5 4 2 2 3 8 10 10 10 13 16 18 18 15 12
13 9 12 24 43 42 30 31 29 16 16 20 14 15 18 10 9 19 20 14 15 14 5 2 6 8 8 12 11 10 7 0 4 6 5 7 3 3 21 36 31 21 17 21 20 11 5 4 8 10 10 11 9 5 7 12 10 9 12 16 15 13 13 9 5 7 8 4 7 14 16 9 6 7 7 5 1 1 4 7 9 11 14 16 15 16 15 12
15 10 10 13 21 22 19 23 24 17 18 21 14 12 20 18 10 14 21 16 14 15 6 2 8 11 12 16 13 11 7 3 5 11 9 9 5 3 16 26 23 23 24 22 20 12 4 6 12 11 5 2 3 5 11 18 17 15 15 17 17 16 13 11 12 12 4 5 8 16 14 13 10 5 4 10 7 3 4 4 8 12 15 17 17 18 18 14
19 15 27 31 18 9 14 18 18 18 22 23 16 15 22 24 15 13 15 10 10 15 8 3 10 14 18 22 15 12 10 3 4 10 8 7 7 7 11 12 13 23 23 17 17 11 3 6 8 5 1 5 4 8 12 14 12 12 16 18 19 19 18 19 20 13 7 7 14 8 7 15 12 5 7 10 11 12 7 3 7 13 16 17 18 21 23 19
22 16 30 44 27 12 20 28 24 21 23 21 15 16 23 26 21 14 10 6 6 12 12 8 11 15 18 19 14 12 14 8 7 11 10 12 13 11 12 7 9 19 18 12 11 5 3 3 2 5 3 7 5 6 9 9 7 6 12 15 16 20 23 23 22 15 9 14 17 4 4 15 10 5 7 9 15 21 15 9 13 16 19 19 16 18 22 22
24 21 27 33 22 15 22 26 24 20 20 20 15 14 19 24 24 16 10 11 10 10 14 15 17 19 17 17 14 14 20 20 19 18 17 17 15 11 11 8 7 13 13 9 6 2 3 3 2 6 5 7 6 3 5 7 9 8 10 13 15 18 20 21 20 15 13 18 17 7 12 16 8 9 10 13 17 19 16 18 22 21 20 18 15 16 19 21
26 34 43 30 13 16 20 17 19 18 15 17 15 14 17 22 25 18 11 15 19 17 20 22 22 20 15 16 18 19 25 25 20 19 21 20 17 11 6 5 9 13 10 7 5 3 4 2 2 6 5 2 3 3 6 6 6 4 10 16 18 17 16 17 16 15 17 18 13 9 15 14 6 10 12 16 17 16 16 21 25 24 20 15 14 18 20 20
23 33 45 33 14 17 20 14 17 18 14 15 16 15 18 21 24 21 13 14 19 20 22 22 21 17 15 20 25 25 23 17 13 19 24 24 21 15 12 17 22 17 10 6 4 4 5 5 3 5 5 2 4 3 7 7 6 3 12 17 20 18 16 16 15 17 20 15 10 13 16 8 5 8 10 11 12 15 21 25 29 30 27 20 18 20 20 20
Wind_Direction
220 219 218 218 220 221 227 228 222 215 208 208 210 208 210 217 221 222 219 212 205 201 197 193 190 187 185 185 189 195 195 196 198 199 202 200 194 187 180 172 162 162 175 185 192 193 186 181 182 182 183 177 155 137 125 113 103 80 68 84 178 179 188 183 177 193 182 345 342 249 202 195 197 188 188 193 201 207 206 208 216 213 216 220 215 213 185 181
218 218 218 217 217 217 223 227 224 219 212 210 211 209 210 214 220 223 220 216 207 197 194 191 187 186 185 186 190 192 195 199 206 209 207 199 191 187 180 167 154 151 163 174 186 195 192 187 183 181 183 179 167 160 149 111 96 90 101 116 217 199 219 206 188 220 237 320 335 322 219 210 222 193 190 197 202 199 203 213 217 217 220 218 206 189 186 183
216 216 217 215 215 216 219 225 228 224 216 215 215 211 211 211 217 224 221 215 208 198 193 188 185 185 184 187 188 189 195 201 213 216 208 199 190 187 181 166 154 150 156 167 176 188 194 193 189 185 180 171 171 175 168 141 111 98 112 153 224 214 250 348 357 319 293 304 329 338 263 227 230 199 194 206 198 194 210 215 212 217 220 214 202 187 188 187
212 213 214 213 212 216 218 223 232 231 220 217 220 217 213 212 215 222 220 212 207 203 195 187 183 183 182 185 185 187 192 201 222 218 206 201 194 187 182 169 161 157 157 166 172 177 183 187 187 184 172 141 138 156 153 156 154 135 140 173 191 180 248 20 12 7 3 339 335 338 313 260 240 210 202 200 183 217 229 224 222 226 223 213 206 194 191 192
208 209 212 210 206 207 211 219 229 234 228 217 220 223 216 213 214 219 219 211 208 207 198 188 182 181 179 180 182 183 181 186 233 218 205 203 199 191 184 175 174 172 164 166 172 177 180 182 181 173 156 119 124 128 115 148 152 147 188 198 143 141 157 354 360 357 350 348 335 321 307 275 250 222 216 205 201 232 237 235 237 239 233 222 215 204 194 197
206 207 207 206 201 200 201 211 222 230 232 222 218 224 221 217 214 215 219 214 210 207 199 190 183 179 177 178 181 180 179 167 246 212 204 203 200 195 188 183 188 187 178 173 169 173 177 180 181 161 134 105 121 129 132 153 161 175 219 179 120 119 321 335 342 341 331 328 317 299 278 271 251 242 234 222 227 235 243 250 248 246 237 230 224 212 203 203
204 205 206 203 199 201 200 205 215 222 228 225 221 223 226 222 214 214 220 220 213 205 200 195 186 179 176 177 181 183 190 194 83 196 197 198 199 194 189 190 198 196 189 188 172 167 169 171 170 152 128 100 123 137 143 148 168 188 208 150 142 287 309 333 333 332 325 310 300 292 278 267 238 246 247 235 240 238 240 254 254 250 235 227 224 218 217 215
202 204 206 202 199 202 203 204 210 216 220 223 223 223 228 225 218 217 218 219 212 202 199 197 189 181 176 177 179 185 200 201 183 179 186 191 194 190 191 196 204 201 194 199 185 173 174 171 164 154 130 128 156 145 147 137 152 193 177 157 191 268 276 310 325 331 328 312 304 286 268 263 248 252 259 253 254 242 236 243 247 252 234 225 223 221 222 221
199 203 203 201 200 201 204 204 207 215 220 221 222 223 228 226 220 216 210 210 208 202 200 196 190 182 177 179 177 186 206 196 184 179 181 187 189 189 195 200 202 199 195 200 194 185 184 181 179 180 173 161 159 148 156 158 251 199 177 179 202 278 273 284 308 331 329 310 306 277 268 273 258 257 266 264 264 249 238 237 238 248 239 228 225 223 222 221
197 200 200 200 200 198 199 201 203 210 217 221 222 223 227 227 223 217 205 204 207 205 201 196 188 182 179 180 176 189 206 190 183 190 181 185 187 189 196 199 199 197 196 195 192 190 186 185 187 188 187 163 157 152 165 180 211 174 161 220 248 295 282 273 292 315 316 302 293 256 273 288 247 210 262 270 273 251 239 235 234 239 243 235 228 226 224 223
196 198 198 197 197 195 194 197 200 204 213 218 220 223 223 226 228 224 215 208 209 208 204 197 187 183 182 181 181 191 196 185 181 188 181 183 186 189 192 194 195 194 196 193 188 190 186 186 184 180 183 166 154 148 162 175 166 132 111 228 283 305 287 266 277 305 315 302 283 249 272 291 185 179 250 263 278 252 236 233 233 234 239 238 231 227 224 224
194 196 196 196 194 195 195 197 198 202 211 214 218 222 220 224 228 228 227 218 210 207 203 197 186 184 182 184 192 191 187 183 180 182 180 181 183 187 188 187 189 190 194 191 187 190 190 190 188 178 170 160 147 135 171 169 149 108 95 189 302 330 302 263 261 290 301 294 283 230 289 282 189 229 250 257 259 248 237 232 230 230 234 235 232 228 224 224
193 193 193 196 195 196 197 196 195 198 203 207 213 215 216 220 223 225 228 223 209 202 199 195 187 183 180 186 197 190 184 181 180 181 177 179 181 182 185 184 187 189 191 189 184 186 183 181 189 176 153 152 141 124 150 144 134 116 88 142 306 354 326 274 243 260 252 261 234 151 268 276 232 244 251 255 248 240 237 234 230 228 230 232 232 229 226 224
193 194 192 194 196 195 196 196 199 202 203 205 207 209 210 212 216 221 222 222 208 199 196 193 186 182 181 186 190 186 183 179 181 182 176 179 179 177 182 183 185 186 187 187 179 176 168 167 180 168 146 150 139 120 115 96 107 132 107 103 39 161 282 300 96 135 194 251 202 162 256 267 265 265 261 256 246 237 235 236 234 229 228 231 231 230 229 226
193 195 192 194 196 195 195 195 200 206 208 207 209 216 218 210 211 216 220 228 209 197 193 189 184 179 180 185 184 181 181 181 184 182 178 180 178 176 177 178 179 181 182 183 178 169 161 163 166 147 128 137 136 122 92 46 44 86 160 220 15 174 261 310 3 160 207 251 183 163 252 270 268 277 274 254 238 231 233 236 236 234 230 230 232 232 231 230
195 197 196 196 196 196 197 196 197 200 204 206 210 220 225 219 213 212 223 234 210 195 185 182 180 178 180 182 180 179 182 185 182 178 179 181 181 176 173 173 173 175 177 178 179 174 169 167 152 132 123 129 138 120 92 114 56 14 169 182 180 167 228 304 303 181 183 199 196 185 230 281 273 277 288 249 231 226 231 235 236 236 234 232 233 233 234 233
196 200 200 198 198 199 196 196 196 196 198 203 209 216 226 228 219 216 220 222 207 194 187 183 180 182 191 168 172 179 185 184 177 175 176 179 183 177 170 168 166 169 170 167 173 174 174 169 147 135 128 127 153 133 136 186 177 43 67 171 217 189 186 263 283 64 115 132 232 225 232 264 275 281 289 278 243 230 230 235 236 236 236 235 235 235 236 235
196 202 204 199 198 200 196 195 195 197 199 200 206 213 224 231 224 220 220 219 200 189 189 186 179 183 205 177 177 183 185 179 173 173 173 176 184 179 171 166 163 163 156 152 164 167 165 157 141 140 136 150 171 161 182 194 154 150 172 186 226 221 241 278 266 355 40 97 242 266 265 266 270 274 275 274 263 240 237 239 238 240 240 237 237 236 237 237
195 203 206 200 197 198 198 197 194 199 202 200 207 214 224 230 226 225 226 230 208 187 182 176 176 183 243 187 180 178 180 175 170 171 170 172 179 178 170 164 160 156 147 143 167 165 151 128 136 176 178 171 175 177 186 164 159 176 182 179 167 174 242 268 221 301 43 37 270 248 251 265 268 270 271 270 260 247 247 246 242 244 244 241 240 239 238 238
193 201 207 201 195 196 197 198 195 198 201 201 201 201 212 212 218 239 235 242 236 225 262 176 177 174 89 174 171 169 172 171 170 170 170 172 172 169 161 155 152 151 153 150 162 166 158 156 195 197 178 166 175 182 177 154 161 163 156 174 160 169 236 253 198 254 69 53 271 248 247 264 270 271 272 271 261 247 247 244 243 244 244 243 242 242 241 241
192 199 207 199 189 192 194 197 196 196 200 201 195 194 196 179 178 234 224 244 242 236 268 192 178 176 115 166 169 163 157 160 170 170 170 171 168 162 155 154 150 154 163 140 130 151 166 194 209 191 167 162 177 180 162 137 136 137 143 171 160 168 242 244 230 283 49 96 258 281 289 274 269 269 270 268 248 241 244 239 242 245 245 244 243 244 245 245
193 200 207 196 185 186 187 193 195 197 199 196 193 200 207 196 197 209 198 247 255 243 257 203 182 187 165 167 172 164 151 147 164 167 169 170 169 166 160 162 162 154 146 130 126 141 181 213 185 157 157 161 173 168 156 154 151 145 138 148 167 171 240 267 277 308 9 142 266 314 307 278 275 272 270 262 239 245 250 246 247 249 247 246 246 248 248 248
193 201 206 193 182 181 183 189 192 200 202 194 193 200 208 202 203 211 200 70 307 262 245 195 183 183 165 164 171 167 157 149 160 168 171 172 173 172 163 163 161 145 145 153 159 162 190 207 150 141 152 157 165 165 159 164 164 162 148 154 188 168 184 245 268 300 331 209 261 314 312 283 279 277 274 260 245 249 254 251 253 252 250 252 251 254 253 252
191 200 204 185 175 179 182 184 190 200 202 196 192 195 208 207 206 211 209 19 321 286 253 193 181 183 174 165 170 171 164 160 165 169 173 173 170 168 164 156 144 137 159 169 166 166 164 144 143 144 154 156 159 171 167 168 181 195 185 174 160 146 154 159 219 306 357 336 287 40 313 275 260 260 267 260 242 246 250 247 250 249 248 252 252 252 253 253
187 196 199 175 171 179 182 185 193 200 200 201 194 193 211 213 210 212 202 8 277 275 273 193 174 183 182 170 171 171 161 160 169 168 171 174 168 159 158 158 150 152 168 164 155 162 162 151 153 152 161 160 160 180 179 175 182 211 214 171 146 142 131 95 59 36 35 325 318 60 291 267 256 247 253 259 237 245 247 237 242 246 245 245 246 249 252 253
183 193 193 174 173 179 184 189 197 199 199 206 198 193 210 211 214 210 183 11 264 238 269 186 167 178 184 174 167 165 158 158 170 168 168 175 172 159 150 157 148 160 162 154 146 155 167 169 163 160 163 162 169 185 182 173 168 215 200 154 145 144 132 121 90 69 132 247 290 67 222 269 307 271 260 271 265 258 253 237 240 246 245 242 244 249 251 253
183 194 194 180 176 182 186 188 198 198 197 206 202 191 189 188 194 189 166 329 256 166 189 198 172 176 184 174 163 162 163 150 157 169 170 172 173 162 158 166 123 159 158 144 162 172 153 164 166 161 158 164 181 185 181 174 163 220 180 149 148 148 147 137 98 98 204 263 290 230 165 271 287 269 261 259 264 266 260 253 248 249 248 244 245 249 252 253
189 198 206 189 181 192 188 173 182 191 191 196 200 193 177 162 156 155 157 254 214 128 169 219 170 171 176 172 167 158 141 147 148 174 171 168 171 164 170 182 155 155 162 161 183 180 142 165 169 159 157 173 184 164 163 165 154 249 161 141 142 131 122 103 89 103 125 27 276 215 136 229 265 267 265 209 248 255 252 249 245 248 250 246 245 249 252 254
187 197 214 199 192 201 194 186 174 180 193 189 191 193 178 157 145 140 172 229 149 85 170 181 163 166 165 169 171 146 137 150 144 163 168 166 169 160 156 172 152 132 80 98 159 143 134 173 168 157 162 182 161 134 157 159 120 125 117 100 90 83 80 82 94 90 56 293 254 185 152 223 265 266 222 207 240 245 249 250 238 245 250 249 247 248 251 253
184 190 210 213 208 204 203 208 193 162 177 188 192 184 163 149 143 166 220 202 117 96 162 174 177 163 157 161 168 143 142 147 135 148 162 158 154 134 117 138 137 119 51 38 95 116 14 142 159 153 157 158 125 124 151 140 126 124 107 89 79 62 59 62 67 77 71 266 253 161 168 196 270 252 208 216 228 222 236 255 252 251 253 253 251 249 250 251
191 190 206 223 219 208 213 220 206 174 153 177 191 173 153 145 162 216 213 140 83 148 158 183 182 160 159 155 154 153 142 124 139 147 152 144 144 129 123 129 117 107 96 65 68 355 41 114 163 146 140 136 114 104 118 125 131 124 109 116 97 51 40 35 8 55 217 246 295 169 161 172 239 243 211 234 239 210 219 228 239 247 249 252 253 252 251 251
205 198 204 222 225 215 217 228 213 194 176 173 176 163 148 153 212 220 216 116 140 180 163 171 184 173 163 149 150 157 140 135 152 153 155 156 155 154 150 160 157 138 159 166 149 80 90 120 238 128 148 146 127 111 98 127 143 127 130 140 119 98 109 131 249 190 236 237 227 175 149 187 241 242 244 250 251 247 238 230 238 246 249 251 250 250 252 252
217 210 209 219 234 234 222 227 221 205 198 184 166 153 149 227 203 196 206 163 178 191 151 156 172 170 155 141 152 154 139 148 159 158 159 155 156 163 159 165 157 132 160 161 142 133 117 336 273 146 169 173 156 146 154 170 169 155 150 154 152 146 156 194 198 234 250 248 237 166 149 256 272 255 241 242 237 237 240 244 250 254 258 259 254 248 247 249
227 226 224 222 237 245 226 218 222 218 209 191 167 146 182 220 189 178 198 208 321 50 137 151 159 162 158 154 165 157 137 153 158 154 155 153 161 168 164 184 181 108 109 142 145 159 155 255 205 182 182 181 173 163 154 142 147 167 164 152 162 165 177 189 184 202 216 242 285 216 169 226 233 251 253 252 249 246 246 250 255 257 259 260 258 253 247 245
230 232 231 229 234 235 228 215 212 218 204 181 173 181 202 203 170 177 190 172 151 137 143 155 153 152 161 168 172 166 106 161 158 150 159 166 173 176 172 185 187 151 141 158 178 166 164 214 203 172 155 162 168 151 129 125 130 225 130 125 192 184 141 137 184 184 157 141 231 211 230 220 210 272 279 270 265 260 254 255 257 256 255 254 254 254 251 246
234 233 233 235 230 224 226 219 207 212 198 170 179 227 214 208 160 161 174 152 161 154 144 160 161 155 158 162 182 181 17 137 158 151 164 172 177 180 175 179 182 173 165 158 134 157 165 157 20 95 140 170 174 159 152 155 153 153 178 183 198 150 107 108 220 62 86 228 230 193 245 278 310 282 270 249 249 260 259 256 251 249 249 250 250 250 250 248
240 238 236 235 229 222 221 217 206 203 191 169 199 226 212 226 175 140 210 180 167 157 149 167 186 169 159 144 177 176 110 126 160 156 159 169 184 183 176 180 183 181 174 146 102 178 149 87 343 88 151 193 177 153 166 180 147 137 186 183 136 71 82 115 186 31 93 242 268 212 235 260 285 269 279 242 245 257 263 257 251 250 250 253 253 247 244 247
254 252 245 236 231 223 214 213 204 194 185 170 218 221 205 204 177 162 237 228 178 168 161 174 189 169 170 159 155 165 148 146 166 165 159 171 195 184 178 182 180 182 180 136 96 169 128 86 319 270 149 197 152 144 169 227 158 140 163 166 144 122 189 162 166 186 194 233 280 278 256 245 216 235 287 259 240 253 265 265 264 260 250 250 255 254 253 256
261 261 252 237 227 219 209 203 192 186 182 183 217 217 201 193 186 187 205 216 210 190 172 177 190 168 179 167 149 162 166 162 166 167 170 182 197 185 180 172 165 182 181 139 121 154 113 104 171 265 174 152 139 167 180 187 166 64 125 169 177 68 169 182 170 169 179 207 247 297 314 254 225 214 204 227 234 236 254 263 257 254 254 256 261 263 267 271
256 256 253 233 218 206 196 190 184 180 183 212 212 207 199 199 195 204 209 209 222 222 191 177 173 157 174 167 154 167 175 168 168 169 175 179 171 190 186 168 155 172 164 127 130 123 76 108 137 186 184 159 190 210 187 175 165 150 161 181 201 167 125 165 181 145 132 166 208 265 282 261 246 199 192 217 229 227 243 267 265 269 283 293 289 278 276 276
252 247 232 218 204 184 178 179 181 179 194 216 213 210 206 200 190 199 213 216 224 256 259 188 167 155 160 165 166 174 169 162 172 174 176 176 165 190 187 164 152 161 148 118 144 137 78 109 129 144 173 182 212 209 182 184 182 178 178 182 189 182 142 166 203 184 134 166 171 181 257 269 243 198 205 217 231 244 260 292 287 294 306 312 309 299 292 285
247 242 226 216 201 176 170 173 179 179 201 209 206 209 200 182 195 195 205 219 226 262 304 219 172 158 163 171 175 175 163 164 179 182 190 185 178 169 165 155 152 158 147 119 149 143 103 101 115 131 177 200 239 234 191 195 188 184 205 187 180 186 171 175 206 198 154 199 156 134 275 280 231 188 202 211 223 249 255 255 272 286 294 297 301 299 293 290
236 240 236 220 199 179 170 177 185 176 205 203 199 208 201 188 201 193 195 212 219 224 245 231 184 170 171 167 170 174 167 169 182 179 137 168 176 144 147 148 149 154 147 132 155 146 108 98 104 100 144 244 295 312 225 160 173 201 229 179 153 200 203 158 172 177 165 208 191 148 263 265 250 187 193 216 243 267 275 276 271 279 290 296 300 301 292 285
237 238 228 209 195 182 171 180 182 181 204 195 196 207 203 202 201 188 197 206 204 211 216 196 189 187 175 164 170 179 175 168 178 171 98 122 163 148 146 149 154 162 165 160 165 162 130 119 128 120 131 243 325 314 224 221 202 202 198 172 177 196 173 120 170 140 269 219 182 174 243 249 270 296 244 289 317 303 310 320 296 284 299 313 317 315 300 283
242 235 214 198 192 184 180 189 181 184 198 190 195 199 193 208 207 192 200 206 204 214 229 196 176 156 160 166 169 179 183 170 168 170 133 96 113 150 152 156 163 168 165 161 162 159 144 143 149 142 156 183 195 202 201 187 177 176 168 181 194 188 177 188 187 164 237 215 169 189 233 234 252 280 295 27 64 0 337 339 337 316 316 327 327 323 313 293
223 210 202 192 189 187 191 193 185 186 191 184 189 194 188 196 203 195 199 208 214 217 238 232 148 121 149 166 158 174 196 139 131 155 141 137 134 175 164 164 167 167 161 162 162 146 113 167 191 184 183 191 194 186 140 131 150 188 185 182 192 194 188 184 172 203 221 184 175 218 230 232 233 252 291 306 226 168 304 319 343 345 338 341 340 333 327 311
216 198 192 181 186 190 193 192 190 191 185 180 180 181 189 195 190 192 199 205 212 211 229 251 164 150 161 166 161 172 175 51 114 153 149 143 111 71 162 166 168 168 164 167 166 146 108 201 202 199 211 224 142 137 135 145 167 185 175 179 193 193 188 190 202 213 172 107 227 232 227 240 242 208 263 288 286 229 209 271 335 345 339 341 345 342 336 324
223 206 194 185 181 186 186 186 192 189 180 181 180 170 184 194 189 186 195 199 204 202 211 227 186 177 170 168 167 167 160 96 132 159 145 137 120 105 152 174 182 172 166 169 173 155 129 203 192 170 275 360 76 140 151 155 169 174 172 184 191 187 193 204 212 211 148 182 239 230 192 234 242 177 201 244 267 268 252 259 312 315 312 318 331 333 329 322
219 213 193 185 181 178 180 178 181 186 182 181 183 177 182 189 189 184 176 169 196 203 202 198 187 184 178 174 168 163 166 162 164 175 167 157 155 146 152 177 204 184 173 171 176 150 98 189 147 110 89 1 27 145 154 144 137 161 184 190 189 192 200 208 215 216 202 228 248 266 264 258 246 195 214 217 237 259 275 283 279 280 282 291 309 316 315 314
206 191 177 179 182 177 175 176 177 179 180 182 185 183 180 184 187 184 170 171 180 195 204 200 185 181 181 179 174 177 185 183 178 179 173 162 163 165 167 171 178 179 176 171 174 109 94 162 107 103 92 0 358 93 112 135 150 171 197 201 198 199 205 213 218 217 219 239 248 265 288 277 232 190 235 251 248 258 275 277 271 267 265 274 288 293 297 301
207 184 170 166 170 172 171 175 175 172 176 185 184 175 177 185 185 178 177 193 189 185 194 194 181 176 179 184 191 196 195 192 180 168 166 165 163 157 160 162 152 159 166 161 151 91 75 101 71 91 99 330 309 85 91 110 128 170 221 215 203 199 205 213 216 210 215 230 234 241 260 261 201 172 219 252 261 265 270 271 275 277 271 262 267 278 285 288
190 175 170 164 157 167 168 167 176 176 175 180 178 170 175 183 180 174 179 205 208 204 202 191 174 168 176 190 203 206 196 187 167 157 161 163 157 143 139 150 153 156 154 138 128 120 118 123 113 115 131 234 270 151 117 86 56 294 245 214 197 200 205 209 216 215 213 214 210 223 236 232 139 158 200 230 243 250 257 260 264 271 271 263 260 270 279 281
Height
1436 1437 1439 1442 1443 1447 1449 1451 1454 1457 1459 1462 1465 1468 1471 1475 1477 1479 1482 1485 1489 1492 1495 1498 1501 1504 1507 1510 1513 1514 1517 1519 1521 1522 1522 1524 1528 1532 1534 1535 1537 1539 1540 1542 1543 1545 1547 1549 1551 1553 1554 1556 1558 1558 1560 1561 1561 1563 1568 1572 1573 1576 1574 1570 1572 1572 1569 1569 1569 1569 1569 1569 1569 1569 1570 1570 1571 1571 1571 1571 1572 1572 1573 1574 1575 1575 1576 1577
1433 1435 1437 1439 1441 1444 1447 1449 1452 1454 1458 1460 1462 1466 1469 1473 1476 1478 1481 1484 1487 1490 1493 1496 1499 1502 1506 1509 1511 1514 1516 1519 1520 1520 1520 1523 1527 1530 1533 1534 1535 1537 1539 1541 1542 1544 1545 1548 1550 1552 1554 1555 1557 1557 1559 1560 1560 1564 1571 1573 1573 1574 1571 1568 1570 1569 1569 1569 1569 1569 1569 1569 1569 1569 1570 1570 1570 1570 1571 1570 1571 1571 1572 1573 1574 1575 1575 1577
1431 1433 1435 1437 1440 1442 1444 1447 1449 1452 1457 1460 1461 1464 1467 1471 1474 1476 1479 1483 1485 1488 1491 1494 1498 1500 1504 1507 1510 1513 1516 1518 1518 1516 1518 1522 1526 1529 1532 1533 1534 1536 1538 1540 1542 1543 1545 1547 1549 1551 1553 1554 1555 1557 1558 1559 1561 1564 1569 1572 1571 1570 1569 1569 1570 1569 1569 1569 1569 1570 1570 1570 1569 1569 1570 1569 1569 1570 1569 1568 1569 1569 1569 1571 1573 1574 1575 1576
1429 1430 1432 1435 1437 1439 1442 1445 1447 1450 1455 1458 1460 1462 1466 1469 1472 1474 1477 1480 1483 1487 1489 1492 1495 1499 1503 1505 1510 1512 1515 1519 1514 1511 1517 1521 1524 1528 1530 1532 1533 1535 1537 1539 1541 1543 1545 1547 1548 1550 1552 1554 1555 1556 1557 1558 1561 1564 1567 1568 1569 1568 1568 1569 1569 1569 1569 1568 1569 1569 1570 1570 1569 1570 1569 1568 1569 1568 1565 1564 1565 1566 1567 1569 1571 1572 1574 1575
1427 1428 1430 1433 1435 1437 1440 1443 1445 1449 1453 1456 1459 1462 1464 1467 1470 1472 1475 1478 1481 1485 1488 1490 1493 1497 1501 1504 1508 1510 1515 1519 1510 1508 1516 1518 1522 1526 1528 1531 1532 1534 1537 1539 1540 1542 1544 1546 1547 1549 1551 1553 1555 1556 1558 1558 1560 1563 1565 1565 1566 1567 1568 1568 1568 1568 1568 1568 1568 1568 1569 1569 1569 1569 1568 1567 1565 1563 1561 1562 1564 1564 1567 1568 1569 1571 1572 1574
1424 1426 1428 1430 1433 1435 1437 1440 1444 1448 1451 1455 1458 1460 1463 1465 1468 1471 1473 1476 1479 1483 1486 1488 1491 1495 1499 1503 1507 1508 1510 1511 1505 1506 1512 1515 1519 1523 1526 1529 1531 1533 1535 1537 1539 1540 1542 1544 1546 1548 1549 1553 1555 1556 1558 1559 1560 1562 1564 1564 1565 1566 1566 1567 1567 1567 1567 1567 1567 1568 1568 1568 1569 1568 1567 1566 1561 1560 1561 1562 1563 1564 1566 1568 1569 1570 1570 1572
1423 1425 1426 1428 1431 1434 1435 1439 1444 1447 1449 1453 1456 1459 1461 1464 1466 1468 1471 1473 1476 1480 1483 1486 1490 1493 1497 1501 1505 1507 1504 1503 1503 1504 1508 1513 1516 1520 1525 1528 1530 1532 1534 1536 1538 1538 1540 1542 1544 1546 1548 1552 1555 1556 1558 1559 1560 1561 1563 1564 1564 1565 1565 1566 1566 1566 1567 1567 1566 1567 1567 1567 1568 1567 1566 1562 1559 1560 1561 1561 1563 1563 1565 1566 1568 1568 1569 1570
1420 1423 1425 1427 1429 1433 1435 1437 1442 1446 1448 1450 1454 1457 1459 1462 1464 1466 1468 1469 1473 1477 1481 1485 1489 1491 1494 1497 1501 1504 1501 1501 1502 1503 1506 1511 1515 1519 1523 1526 1528 1531 1532 1535 1536 1537 1539 1540 1543 1545 1548 1551 1553 1555 1557 1559 1561 1561 1561 1563 1563 1563 1563 1564 1565 1565 1566 1566 1566 1566 1565 1566 1566 1567 1564 1558 1557 1560 1561 1561 1562 1562 1563 1564 1566 1567 1568 1569
1418 1421 1423 1426 1428 1431 1433 1436 1439 1444 1446 1449 1452 1455 1457 1460 1462 1464 1465 1466 1470 1474 1479 1483 1487 1489 1492 1493 1497 1499 1496 1498 1503 1504 1506 1509 1513 1518 1521 1523 1527 1529 1531 1534 1536 1537 1538 1539 1541 1544 1547 1550 1552 1555 1557 1559 1560 1559 1561 1562 1562 1562 1562 1563 1564 1564 1565 1565 1565 1565 1564 1564 1565 1567 1562 1555 1556 1559 1559 1560 1561 1561 1562 1562 1564 1565 1566 1567
1416 1419 1422 1424 1426 1429 1431 1434 1437 1441 1444 1447 1450 1453 1456 1458 1460 1463 1464 1466 1469 1473 1477 1481 1484 1488 1489 1491 1496 1494 1491 1497 1502 1503 1505 1508 1512 1515 1518 1521 1525 1528 1530 1533 1535 1536 1537 1538 1540 1543 1547 1549 1552 1555 1557 1558 1559 1559 1560 1561 1562 1562 1561 1562 1563 1564 1564 1564 1565 1564 1564 1563 1565 1566 1559 1552 1555 1557 1557 1559 1559 1560 1560 1561 1562 1563 1565 1566
1415 1418 1420 1423 1425 1427 1430 1432 1435 1438 1441 1444 1449 1452 1454 1457 1458 1460 1462 1465 1468 1471 1475 1478 1481 1485 1486 1488 1490 1489 1490 1497 1500 1501 1504 1507 1510 1513 1516 1519 1523 1526 1529 1531 1534 1534 1536 1538 1540 1543 1547 1549 1553 1555 1557 1557 1558 1559 1560 1561 1562 1561 1561 1562 1563 1564 1564 1563 1564 1564 1564 1563 1565 1565 1556 1553 1555 1556 1556 1557 1558 1559 1559 1560 1561 1562 1563 1564
1413 1416 1419 1421 1423 1425 1428 1430 1433 1436 1439 1443 1447 1450 1453 1456 1457 1459 1460 1463 1466 1469 1472 1476 1479 1482 1485 1487 1487 1487 1491 1496 1498 1500 1503 1505 1509 1512 1516 1519 1522 1526 1528 1530 1532 1533 1535 1537 1540 1543 1545 1548 1552 1556 1556 1557 1559 1559 1560 1562 1562 1562 1562 1561 1562 1564 1564 1564 1563 1565 1565 1563 1563 1559 1553 1553 1555 1555 1556 1556 1556 1557 1558 1559 1559 1560 1562 1562
1412 1415 1417 1419 1422 1424 1426 1429 1431 1434 1437 1441 1445 1448 1452 1455 1457 1458 1460 1463 1465 1466 1470 1474 1477 1480 1484 1485 1486 1488 1491 1494 1497 1498 1501 1504 1508 1511 1515 1519 1522 1525 1528 1530 1531 1533 1535 1537 1539 1542 1544 1547 1551 1554 1555 1557 1559 1560 1561 1563 1563 1564 1563 1561 1562 1563 1564 1564 1563 1566 1567 1560 1557 1554 1551 1554 1554 1554 1554 1554 1554 1555 1556 1557 1558 1558 1560 1561
1411 1413 1416 1418 1421 1423 1425 1428 1430 1433 1436 1439 1443 1447 1450 1453 1456 1458 1460 1462 1463 1464 1468 1471 1474 1478 1481 1483 1485 1488 1491 1493 1495 1496 1498 1502 1505 1510 1514 1518 1522 1525 1528 1530 1532 1533 1535 1537 1539 1542 1544 1546 1550 1553 1556 1559 1560 1561 1563 1565 1566 1568 1566 1561 1561 1562 1563 1564 1563 1566 1568 1560 1553 1551 1551 1553 1552 1553 1552 1552 1553 1553 1554 1555 1556 1557 1557 1559
1410 1412 1414 1417 1419 1422 1424 1427 1429 1431 1434 1436 1441 1444 1448 1451 1454 1456 1458 1460 1461 1462 1466 1470 1473 1476 1480 1482 1483 1486 1489 1491 1492 1494 1497 1500 1503 1508 1512 1517 1521 1524 1528 1530 1532 1533 1535 1537 1539 1541 1545 1547 1549 1553 1557 1560 1561 1562 1564 1567 1569 1570 1567 1561 1560 1561 1561 1562 1562 1565 1567 1560 1553 1549 1549 1550 1550 1551 1550 1551 1552 1551 1553 1553 1554 1555 1555 1557
1408 1411 1413 1415 1418 1421 1423 1425 1427 1429 1432 1434 1438 1442 1445 1449 1452 1454 1456 1458 1460 1460 1462 1466 1471 1475 1477 1477 1480 1483 1486 1487 1489 1493 1496 1499 1502 1505 1510 1515 1519 1523 1526 1529 1531 1533 1535 1537 1539 1541 1544 1548 1550 1552 1557 1561 1563 1564 1565 1568 1570 1570 1568 1563 1559 1559 1560 1561 1561 1562 1562 1558 1552 1548 1548 1548 1548 1549 1549 1549 1550 1550 1551 1551 1552 1553 1554 1555
1407 1409 1412 1415 1417 1419 1421 1424 1426 1428 1430 1433 1436 1440 1444 1447 1449 1451 1453 1457 1458 1458 1459 1462 1468 1474 1476 1474 1475 1478 1480 1483 1488 1492 1495 1499 1502 1504 1507 1512 1517 1521 1524 1528 1531 1532 1534 1537 1539 1542 1544 1547 1549 1550 1557 1562 1564 1567 1566 1566 1568 1567 1567 1564 1560 1559 1560 1560 1561 1562 1561 1557 1552 1548 1548 1548 1547 1548 1547 1546 1547 1548 1549 1549 1550 1551 1551 1552
1406 1408 1411 1414 1416 1418 1420 1422 1425 1427 1430 1432 1435 1439 1442 1443 1446 1449 1451 1455 1457 1457 1459 1463 1468 1472 1472 1468 1467 1469 1474 1481 1487 1490 1493 1498 1503 1505 1506 1509 1514 1519 1523 1527 1530 1532 1535 1537 1540 1543 1545 1547 1548 1548 1553 1557 1560 1564 1564 1563 1566 1566 1565 1565 1562 1561 1560 1560 1561 1562 1561 1558 1553 1549 1547 1547 1547 1546 1545 1545 1546 1547 1547 1547 1548 1548 1549 1549
1405 1408 1410 1413 1415 1418 1419 1422 1424 1427 1430 1433 1435 1437 1440 1443 1446 1447 1449 1453 1453 1450 1450 1452 1458 1462 1461 1461 1463 1467 1474 1481 1486 1490 1493 1496 1501 1505 1508 1510 1512 1516 1520 1526 1530 1531 1532 1537 1541 1541 1542 1545 1547 1547 1548 1550 1551 1555 1557 1558 1561 1564 1565 1564 1562 1560 1560 1561 1560 1560 1559 1555 1552 1549 1546 1546 1546 1545 1544 1544 1544 1544 1544 1545 1545 1545 1546 1547
1404 1407 1409 1412 1415 1417 1419 1421 1424 1426 1429 1432 1434 1436 1439 1443 1447 1449 1449 1450 1448 1446 1445 1443 1447 1454 1457 1460 1465 1467 1475 1482 1486 1490 1492 1494 1498 1503 1508 1511 1514 1517 1518 1521 1527 1529 1531 1536 1537 1534 1537 1542 1544 1545 1546 1547 1548 1551 1555 1558 1559 1562 1562 1561 1561 1560 1559 1560 1558 1557 1557 1554 1551 1549 1545 1544 1545 1543 1542 1542 1541 1541 1541 1542 1542 1543 1543 1543
1403 1406 1408 1411 1413 1416 1419 1421 1423 1426 1429 1431 1433 1435 1436 1439 1445 1448 1448 1449 1447 1446 1450 1449 1450 1455 1457 1461 1463 1463 1471 1481 1485 1488 1492 1495 1497 1501 1506 1509 1512 1516 1517 1519 1525 1528 1531 1531 1529 1530 1534 1538 1541 1543 1545 1548 1549 1552 1556 1558 1561 1563 1562 1560 1560 1559 1558 1559 1558 1555 1555 1553 1550 1547 1542 1542 1543 1541 1539 1538 1537 1537 1537 1538 1539 1540 1540 1541
1402 1404 1407 1409 1412 1415 1418 1420 1423 1425 1427 1429 1431 1432 1434 1437 1441 1445 1447 1449 1448 1448 1452 1454 1454 1457 1459 1462 1464 1464 1469 1478 1484 1487 1489 1493 1494 1496 1501 1504 1508 1512 1516 1519 1524 1529 1530 1526 1525 1529 1532 1536 1540 1542 1545 1548 1549 1553 1557 1560 1562 1563 1562 1560 1559 1558 1557 1558 1558 1555 1555 1552 1547 1543 1539 1540 1540 1536 1534 1534 1534 1534 1534 1535 1536 1536 1537 1538
1401 1403 1406 1408 1411 1414 1416 1419 1422 1424 1426 1427 1428 1431 1434 1436 1439 1444 1447 1450 1451 1449 1451 1452 1452 1455 1460 1461 1462 1465 1467 1471 1478 1482 1485 1489 1491 1493 1496 1500 1505 1510 1514 1516 1519 1525 1526 1524 1525 1528 1531 1535 1540 1542 1544 1547 1549 1552 1556 1559 1560 1560 1562 1561 1559 1559 1558 1558 1558 1555 1555 1550 1545 1541 1535 1534 1535 1531 1530 1531 1530 1531 1531 1531 1532 1533 1534 1536
1400 1403 1405 1407 1410 1413 1415 1418 1420 1423 1424 1426 1428 1430 1432 1435 1438 1443 1448 1453 1454 1450 1448 1448 1447 1451 1455 1456 1458 1461 1463 1466 1470 1475 1482 1486 1490 1494 1496 1498 1504 1510 1512 1512 1515 1521 1522 1522 1523 1527 1530 1534 1539 1543 1543 1547 1551 1552 1553 1555 1557 1559 1560 1559 1560 1560 1558 1559 1556 1555 1556 1548 1541 1540 1532 1527 1531 1528 1527 1528 1527 1527 1528 1528 1529 1530 1531 1532
1400 1403 1404 1407 1410 1412 1414 1416 1418 1420 1422 1425 1427 1429 1432 1434 1438 1443 1450 1456 1455 1449 1446 1443 1443 1448 1452 1454 1457 1459 1463 1467 1469 1471 1479 1484 1487 1492 1496 1498 1502 1508 1511 1511 1515 1521 1523 1522 1522 1526 1531 1533 1538 1541 1542 1545 1550 1554 1553 1553 1555 1557 1558 1559 1560 1560 1561 1562 1556 1556 1560 1546 1535 1535 1529 1525 1528 1526 1524 1524 1522 1522 1523 1525 1525 1526 1527 1528
1400 1402 1404 1406 1409 1411 1413 1415 1416 1419 1421 1424 1427 1429 1432 1434 1438 1444 1452 1461 1454 1444 1443 1438 1436 1442 1448 1451 1455 1459 1464 1469 1472 1473 1477 1483 1486 1489 1495 1498 1499 1503 1506 1509 1515 1520 1522 1521 1521 1525 1529 1533 1537 1539 1540 1541 1549 1554 1551 1550 1553 1554 1557 1558 1560 1561 1564 1565 1559 1559 1563 1553 1539 1532 1527 1527 1527 1524 1522 1520 1519 1518 1519 1521 1521 1521 1522 1524
1400 1402 1403 1406 1408 1410 1413 1415 1417 1419 1421 1424 1427 1430 1432 1435 1440 1443 1453 1463 1450 1437 1440 1437 1432 1436 1442 1447 1450 1453 1457 1462 1471 1477 1477 1482 1487 1489 1494 1497 1498 1501 1502 1506 1513 1516 1517 1520 1522 1523 1527 1533 1535 1536 1538 1539 1547 1551 1546 1548 1551 1553 1556 1558 1561 1565 1565 1565 1561 1558 1562 1565 1552 1531 1524 1527 1525 1521 1519 1517 1516 1516 1516 1517 1517 1517 1518 1519
1400 1402 1403 1405 1408 1410 1412 1415 1418 1420 1422 1425 1428 1432 1433 1436 1440 1444 1454 1456 1441 1432 1437 1436 1432 1433 1439 1445 1447 1446 1447 1451 1463 1475 1476 1480 1486 1487 1492 1494 1494 1499 1500 1502 1509 1513 1514 1518 1521 1521 1526 1531 1530 1531 1534 1536 1543 1547 1546 1548 1551 1554 1558 1559 1564 1566 1566 1567 1562 1556 1561 1566 1550 1527 1523 1525 1522 1518 1513 1511 1513 1513 1512 1512 1512 1513 1514 1515
1400 1402 1403 1405 1407 1409 1412 1415 1418 1420 1423 1426 1429 1432 1434 1436 1440 1446 1451 1443 1431 1430 1434 1433 1433 1434 1437 1443 1445 1445 1447 1451 1459 1470 1475 1479 1482 1484 1489 1492 1493 1499 1503 1501 1507 1515 1515 1515 1517 1518 1523 1527 1527 1529 1531 1534 1541 1545 1547 1549 1553 1558 1559 1563 1565 1565 1568 1567 1558 1555 1560 1560 1544 1524 1524 1525 1517 1513 1509 1507 1509 1508 1508 1508 1508 1509 1510 1511
1400 1402 1403 1404 1406 1408 1411 1413 1417 1420 1422 1425 1428 1430 1433 1437 1440 1442 1441 1431 1427 1431 1432 1432 1432 1431 1434 1440 1444 1445 1447 1452 1457 1467 1477 1478 1481 1484 1487 1493 1496 1500 1506 1506 1510 1516 1515 1516 1517 1518 1521 1523 1525 1530 1532 1535 1539 1543 1547 1550 1557 1562 1561 1565 1565 1565 1571 1564 1553 1552 1553 1558 1549 1523 1516 1517 1509 1507 1507 1507 1507 1505 1504 1504 1504 1506 1506 1507
1400 1402 1403 1403 1405 1407 1409 1411 1416 1419 1421 1423 1425 1429 1433 1437 1439 1435 1429 1423 1425 1431 1431 1431 1432 1430 1430 1435 1441 1444 1446 1454 1457 1464 1474 1477 1481 1484 1484 1493 1499 1502 1509 1511 1514 1518 1517 1518 1519 1518 1520 1520 1524 1531 1534 1536 1537 1541 1545 1549 1558 1565 1565 1568 1568 1569 1570 1558 1551 1551 1550 1557 1549 1520 1510 1510 1503 1504 1506 1504 1504 1502 1501 1500 1501 1502 1503 1504
1399 1401 1402 1403 1404 1406 1408 1411 1415 1418 1421 1422 1423 1427 1431 1436 1436 1429 1423 1422 1422 1425 1428 1430 1430 1429 1430 1433 1437 1439 1442 1452 1457 1459 1465 1471 1478 1480 1478 1482 1488 1496 1504 1507 1513 1519 1519 1519 1520 1519 1519 1518 1522 1532 1539 1540 1538 1540 1543 1546 1556 1568 1571 1570 1571 1571 1565 1554 1551 1551 1550 1548 1530 1510 1507 1505 1502 1504 1503 1501 1500 1499 1498 1497 1497 1499 1499 1500
1398 1400 1402 1402 1403 1405 1408 1411 1414 1417 1420 1421 1422 1425 1430 1432 1427 1419 1421 1424 1419 1418 1421 1424 1427 1428 1430 1436 1440 1439 1441 1447 1453 1457 1462 1466 1473 1478 1478 1477 1478 1482 1489 1498 1509 1517 1520 1522 1521 1519 1520 1517 1516 1525 1535 1538 1537 1538 1539 1540 1548 1561 1567 1566 1567 1567 1558 1551 1550 1550 1550 1539 1516 1503 1500 1496 1497 1499 1497 1497 1497 1495 1496 1495 1494 1496 1495 1496
1396 1398 1400 1401 1402 1404 1407 1410 1413 1416 1418 1421 1422 1425 1428 1426 1419 1415 1420 1423 1420 1419 1420 1422 1427 1430 1432 1435 1436 1435 1440 1448 1451 1455 1463 1467 1472 1477 1478 1478 1477 1477 1484 1498 1506 1506 1511 1517 1515 1514 1516 1514 1514 1518 1523 1529 1534 1535 1533 1534 1538 1544 1548 1550 1553 1554 1550 1550 1553 1552 1545 1528 1509 1500 1494 1491 1494 1494 1492 1494 1492 1492 1493 1492 1492 1492 1491 1492
1394 1397 1399 1401 1401 1401 1404 1408 1412 1414 1417 1421 1423 1425 1422 1416 1413 1414 1417 1420 1423 1423 1422 1423 1427 1433 1436 1438 1435 1430 1434 1444 1448 1452 1460 1463 1464 1467 1468 1470 1473 1474 1479 1491 1500 1500 1502 1506 1507 1508 1510 1511 1515 1518 1519 1525 1535 1538 1535 1535 1535 1532 1533 1541 1545 1543 1544 1547 1549 1546 1532 1512 1501 1495 1490 1491 1492 1491 1492 1491 1490 1489 1488 1489 1489 1487 1487 1488
1391 1394 1396 1399 1399 1400 1403 1407 1410 1413 1415 1420 1424 1422 1416 1411 1411 1413 1412 1414 1419 1420 1423 1428 1428 1429 1434 1437 1437 1433 1431 1438 1443 1449 1457 1459 1459 1461 1461 1464 1468 1468 1467 1475 1489 1495 1499 1506 1510 1510 1512 1512 1513 1516 1517 1521 1529 1535 1537 1534 1532 1529 1529 1538 1545 1545 1547 1544 1536 1531 1519 1506 1502 1493 1484 1487 1487 1487 1490 1488 1487 1486 1484 1486 1484 1483 1484 1484
1387 1390 1393 1396 1398 1399 1402 1405 1409 1412 1415 1419 1422 1417 1411 1410 1411 1413 1411 1410 1413 1414 1419 1424 1424 1424 1428 1431 1436 1435 1434 1439 1443 1446 1454 1459 1458 1457 1458 1461 1463 1464 1462 1467 1479 1486 1494 1510 1517 1512 1514 1515 1513 1516 1519 1517 1520 1528 1532 1528 1526 1531 1532 1533 1540 1545 1548 1543 1530 1524 1517 1509 1508 1497 1484 1484 1485 1484 1485 1484 1484 1483 1482 1483 1480 1479 1481 1480
1383 1386 1388 1391 1395 1397 1399 1403 1406 1411 1414 1417 1418 1412 1408 1409 1410 1410 1412 1411 1411 1412 1413 1416 1418 1421 1422 1423 1430 1435 1431 1436 1444 1447 1451 1455 1452 1449 1452 1457 1460 1463 1463 1464 1473 1480 1487 1507 1520 1515 1515 1518 1515 1518 1522 1521 1520 1521 1522 1520 1522 1532 1535 1533 1536 1539 1542 1540 1527 1522 1520 1513 1506 1495 1484 1484 1485 1483 1482 1482 1482 1481 1479 1479 1478 1478 1478 1478
1379 1380 1378 1380 1388 1393 1396 1400 1404 1409 1413 1413 1413 1410 1406 1408 1408 1408 1410 1412 1412 1409 1407 1408 1412 1418 1418 1416 1423 1431 1427 1428 1438 1442 1443 1444 1443 1442 1444 1449 1456 1462 1463 1463 1469 1476 1480 1497 1518 1518 1514 1518 1518 1517 1519 1521 1522 1522 1522 1521 1520 1524 1527 1528 1530 1529 1532 1533 1524 1520 1519 1506 1494 1488 1484 1482 1482 1481 1480 1479 1479 1478 1476 1476 1478 1478 1478 1478
1374 1375 1368 1369 1380 1388 1393 1399 1403 1407 1409 1407 1406 1406 1403 1403 1405 1406 1409 1411 1411 1407 1402 1402 1407 1413 1417 1416 1419 1424 1423 1425 1431 1432 1432 1434 1437 1441 1440 1442 1450 1458 1463 1465 1467 1475 1479 1489 1510 1518 1517 1519 1518 1513 1511 1512 1517 1520 1521 1522 1521 1521 1523 1524 1525 1524 1524 1525 1523 1521 1513 1493 1482 1483 1480 1476 1476 1476 1477 1477 1477 1477 1477 1477 1478 1477 1476 1476
1370 1369 1362 1364 1373 1381 1390 1397 1399 1402 1404 1402 1401 1402 1401 1400 1401 1404 1407 1409 1409 1405 1401 1398 1399 1405 1411 1415 1418 1420 1422 1427 1429 1427 1429 1429 1431 1435 1435 1436 1444 1451 1459 1465 1467 1473 1479 1487 1503 1517 1520 1517 1511 1507 1507 1508 1509 1509 1512 1514 1513 1514 1520 1523 1524 1522 1521 1520 1520 1522 1512 1487 1476 1479 1476 1472 1475 1476 1478 1479 1477 1477 1477 1476 1476 1476 1475 1474
1365 1361 1357 1361 1367 1374 1384 1389 1391 1396 1397 1395 1395 1397 1398 1398 1399 1400 1404 1407 1407 1406 1404 1399 1394 1397 1404 1409 1412 1415 1418 1424 1425 1423 1424 1423 1422 1425 1428 1432 1440 1446 1453 1461 1466 1470 1477 1488 1503 1515 1516 1512 1509 1508 1508 1508 1507 1508 1509 1508 1508 1511 1513 1516 1519 1519 1520 1521 1520 1526 1518 1487 1470 1473 1473 1471 1473 1474 1476 1477 1476 1474 1473 1474 1474 1473 1473 1472
1357 1353 1354 1359 1362 1368 1379 1382 1383 1388 1389 1388 1390 1391 1392 1395 1396 1398 1400 1403 1406 1405 1404 1400 1395 1394 1399 1404 1410 1413 1414 1418 1420 1420 1421 1423 1422 1422 1425 1430 1439 1446 1451 1456 1462 1466 1474 1487 1502 1512 1514 1510 1507 1508 1507 1507 1507 1507 1507 1507 1509 1510 1507 1510 1514 1513 1517 1518 1515 1524 1519 1485 1465 1470 1471 1470 1472 1472 1473 1474 1473 1472 1470 1471 1472 1471 1470 1470
1348 1348 1353 1357 1357 1360 1369 1373 1377 1383 1383 1383 1386 1386 1389 1391 1392 1394 1397 1398 1402 1403 1399 1395 1392 1391 1394 1399 1404 1406 1407 1411 1418 1421 1421 1422 1424 1424 1425 1429 1436 1442 1446 1448 1454 1460 1470 1483 1495 1508 1517 1516 1512 1512 1509 1506 1505 1502 1502 1506 1507 1506 1508 1513 1513 1513 1516 1511 1507 1518 1511 1478 1464 1469 1469 1469 1470 1470 1472 1473 1472 1471 1470 1469 1470 1469 1468 1467
1344 1346 1349 1351 1351 1351 1354 1358 1365 1373 1375 1377 1380 1382 1386 1389 1388 1390 1393 1393 1395 1397 1394 1390 1387 1388 1392 1396 1400 1403 1403 1403 1411 1419 1420 1421 1426 1427 1426 1429 1433 1438 1443 1447 1450 1455 1465 1476 1483 1493 1504 1505 1500 1495 1488 1489 1498 1500 1498 1501 1501 1502 1505 1506 1510 1515 1512 1502 1501 1505 1490 1469 1464 1465 1464 1466 1468 1467 1468 1470 1470 1470 1469 1468 1468 1467 1467 1466
1339 1338 1339 1343 1344 1343 1343 1346 1352 1357 1361 1367 1373 1376 1380 1385 1385 1386 1390 1391 1392 1394 1392 1388 1386 1389 1394 1397 1400 1404 1404 1401 1405 1413 1415 1418 1425 1427 1426 1429 1434 1439 1444 1448 1451 1455 1463 1470 1471 1471 1474 1471 1467 1466 1464 1471 1487 1491 1490 1494 1496 1498 1499 1500 1508 1508 1496 1494 1497 1486 1471 1468 1467 1464 1462 1462 1464 1466 1467 1467 1467 1468 1467 1467 1467 1467 1466 1465
1327 1322 1322 1330 1335 1336 1336 1340 1343 1344 1348 1353 1359 1365 1373 1377 1379 1383 1386 1386 1388 1392 1392 1387 1384 1386 1390 1394 1398 1403 1404 1404 1405 1409 1412 1416 1423 1428 1430 1432 1436 1441 1444 1446 1449 1452 1460 1465 1463 1461 1464 1461 1459 1462 1463 1467 1474 1478 1483 1489 1491 1494 1498 1499 1498 1489 1483 1493 1492 1471 1468 1474 1468 1465 1467 1463 1461 1464 1467 1466 1466 1465 1466 1466 1466 1466 1466 1466
1310 1303 1300 1306 1314 1319 1323 1330 1335 1337 1342 1345 1346 1352 1362 1369 1372 1376 1380 1382 1384 1388 1390 1388 1384 1381 1381 1383 1388 1396 1403 1406 1408 1410 1413 1417 1422 1428 1434 1439 1440 1440 1442 1445 1446 1447 1453 1459 1460 1463 1470 1469 1466 1467 1466 1466 1470 1473 1478 1482 1484 1489 1492 1490 1485 1480 1482 1487 1476 1464 1471 1473 1464 1465 1468 1465 1464 1463 1464 1466 1465 1464 1465 1465 1465 1466 1466 1465
1294 1290 1290 1292 1295 1298 1304 1315 1325 1331 1336 1339 1341 1344 1350 1359 1365 1367 1372 1379 1382 1383 1383 1384 1382 1380 1380 1379 1380 1388 1394 1398 1405 1409 1409 1412 1418 1422 1431 1439 1440 1440 1440 1441 1444 1446 1449 1457 1463 1467 1471 1474 1474 1472 1469 1469 1473 1476 1477 1479 1481 1483 1483 1480 1478 1478 1481 1478 1469 1470 1476 1469 1463 1468 1466 1464 1466 1463 1462 1465 1464 1463 1464 1464 1465 1467 1466 1465
1275 1269 1272 1282 1290 1291 1295 1303 1312 1321 1329 1333 1337 1340 1344 1351 1358 1360 1364 1370 1374 1378 1377 1375 1375 1375 1378 1379 1379 1381 1380 1377 1384 1392 1396 1403 1410 1414 1420 1424 1428 1435 1438 1438 1443 1446 1448 1458 1465 1465 1470 1478 1479 1475 1473 1472 1473 1475 1478 1479 1478 1479 1480 1478 1476 1479 1481 1475 1469 1477 1479 1464 1458 1464 1465 1463 1464 1462 1462 1461 1459 1459 1461 1462 1464 1465 1464 1464
1261 1254 1253 1263 1277 1285 1291 1297 1301 1308 1318 1323 1325 1331 1338 1343 1348 1354 1361 1361 1361 1364 1362 1361 1365 1371 1377 1380 1377 1372 1369 1367 1373 1382 1387 1393 1399 1404 1410 1414 1419 1428 1434 1437 1441 1443 1449 1459 1464 1465 1473 1480 1480 1478 1476 1473 1473 1476 1476 1472 1472 1474 1475 1473 1472 1473 1472 1469 1473 1482 1474 1454 1450 1458 1462 1462 1461 1461 1461 1458 1456 1457 1457 1459 1461 1460 1461 1462
1253 1254 1252 1254 1263 1273 1281 1290 1297 1300 1304 1310 1316 1323 1330 1336 1342 1349 1356 1359 1358 1356 1354 1354 1359 1366 1373 1378 1372 1365 1368 1375 1380 1385 1389 1393 1397 1401 1405 1409 1414 1420 1428 1436 1441 1443 1448 1457 1463 1467 1473 1478 1481 1479 1472 1471 1478 1474 1457 1451 1459 1464 1465 1466 1465 1463 1462 1464 1470 1467 1451 1442 1449 1456 1457 1459 1460 1459 1457 1456 1456 1455 1453 1455 1455 1455 1457 1459